Weather History for Naples, Italy

Change the Weather History Date:

Friday, November 30, 2012

  Actual Average Record
Temperature  
Mean Temperature 50 °F -  
Max Temperature 55 °F 56 °F 64 °F (2004)
Min Temperature 41 °F 41 °F 39 °F (1996)
Degree Days  
Heating Degree Days 16    
Moisture  
Dew Point 47 °F    
Average Humidity 87    
Maximum Humidity 100    
Minimum Humidity 63    
Precipitation  
Precipitation 0.00 in 0.16 in - ()
Sea Level Pressure  
Sea Level Pressure 29.58 in    
Wind  
Wind Speed 8 mph ()    
Max Wind Speed 21 mph    
Max Gust Speed -    
Visibility 5.5 miles    
Events Rain , Thunderstorm    
Averages and records for this station are not official NWS values.
T = Trace of Precipitation, MM = Missing Value Source: Averaged Metar Reports

Daily Weather History Graph

Daily Weather History Graph

Search for Another Location

Airport:

Trip Planner

Search our weather history database for the weather conditions in past years. The results will help you decide how hot, cold, wet, or windy it might be!

Date:

Astronomy

Nov. 30, 2012 Rise Set
Actual Time 7:07 AM CET 4:35 PM CET
Civil Twilight 6:36 AM CET 5:06 PM CET
Nautical Twilight 6:02 AM CET 5:40 PM CET
Astronomical Twilight 5:29 AM CET 6:13 PM CET
Moon 6:15 PM CET (11/30) 8:26 AM CET (11/30)
Length of Visible Light 10h 29m
Length of Day
9h 28m
Full, 97% of the Moon is Illuminated
Nov 30
Full
Dec 6
Last Quarter
Dec 13
New
Dec 20
First Quarter
Dec 28
Full

Hourly Weather History & Observations

Time (CET) Temp. Windchill Dew Point Humidity Pressure Visibility Wind Dir Wind Speed Gust Speed Precip Events Conditions
12:20 AM 53.6 °F - 48.2 °F 82% 29.44 in 6.2 mi WSW 12.7 mph - N/A Rain Light Rain
12:50 AM 53.6 °F - 53.6 °F 100% 29.44 in 6.2 mi WSW 20.7 mph - N/A Rain Light Rain
1:20 AM 55.4 °F - 55.4 °F 100% 29.44 in 6.2 mi SW 12.7 mph - N/A Rain Light Rain
1:50 AM 55.4 °F - 55.4 °F 100% 29.47 in 5.0 mi SW 16.1 mph - N/A Rain Light Rain
2:20 AM 55.4 °F - 55.4 °F 100% 29.47 in 5.0 mi WSW 19.6 mph - N/A   Mostly Cloudy
2:50 AM 53.6 °F - 53.6 °F 100% 29.47 in 6.2 mi WSW 12.7 mph - N/A   Scattered Clouds
3:20 AM 55.4 °F - 55.4 °F 100% 29.47 in 6.2 mi SW 6.9 mph - N/A   Scattered Clouds
3:50 AM 55.4 °F - 46.4 °F 72% 29.47 in 6.2 mi SW 8.1 mph - N/A   Scattered Clouds
4:20 AM 55.4 °F - 48.2 °F 77% 29.47 in 6.2 mi WSW 8.1 mph - N/A   Mostly Cloudy
4:50 AM 55.4 °F - 48.2 °F 77% 29.47 in 6.2 mi SW 9.2 mph - N/A   Scattered Clouds
5:50 AM 55.4 °F - 55.4 °F 100% 29.47 in 6.2 mi WSW 11.5 mph - N/A   Scattered Clouds
6:20 AM 55.4 °F - 46.4 °F 72% 29.50 in 6.2 mi WSW 13.8 mph - N/A   Mostly Cloudy
6:50 AM 55.4 °F - 42.8 °F 63% 29.50 in 6.2 mi SW 8.1 mph - N/A   Scattered Clouds
7:20 AM 55.4 °F - 42.8 °F 63% 29.53 in 6.2 mi SW 3.5 mph - N/A   Mostly Cloudy
7:50 AM 53.6 °F - 44.6 °F 72% 29.53 in 6.2 mi West 3.5 mph - N/A   Mostly Cloudy
8:20 AM 51.8 °F - 46.4 °F 82% 29.53 in 5.0 mi WSW 8.1 mph - N/A Rain Rain
8:50 AM 55.4 °F - 48.2 °F 77% 29.53 in 6.2 mi SW 5.8 mph - N/A   Scattered Clouds
9:20 AM 55.4 °F - 48.2 °F 77% 29.56 in 6.2 mi North 3.5 mph - N/A   Scattered Clouds
9:50 AM 53.6 °F - 48.2 °F 82% 29.56 in 6.2 mi North 6.9 mph - N/A Rain Light Rain
10:20 AM 51.8 °F - 48.2 °F 88% 29.59 in 6.2 mi ESE 8.1 mph - N/A Rain Light Rain
10:50 AM 50.0 °F - 46.4 °F 87% 29.59 in 5.0 mi ENE 4.6 mph - N/A Rain , Thunderstorm Light Rain
11:20 AM 50.0 °F - 48.2 °F 94% 29.62 in 5.0 mi Variable 2.3 mph - N/A Rain Light Rain
11:50 AM 51.8 °F - 48.2 °F 88% 29.59 in 6.2 mi ENE 4.6 mph - N/A Rain Light Rain
12:20 PM 51.8 °F - 50.0 °F 94% 29.59 in 6.2 mi ENE 4.6 mph - N/A Rain Light Rain
12:50 PM 51.8 °F - 48.2 °F 88% 29.59 in 6.2 mi NE 3.5 mph - N/A Rain Light Rain
1:20 PM 51.8 °F - 48.2 °F 88% 29.62 in 5.0 mi WSW 9.2 mph - N/A Rain Rain
1:50 PM 50.0 °F - 48.2 °F 94% 29.62 in 3.1 mi South 5.8 mph - N/A Rain Rain
2:20 PM 50.0 °F - 48.2 °F 94% 29.62 in - North - - N/A Rain Rain
2:50 PM 50.0 °F - 48.2 °F 94% 29.62 in 3.1 mi SSE 4.6 mph - N/A Rain Rain
3:20 PM 50.0 °F - 46.4 °F 87% 29.62 in 5.0 mi South 4.6 mph - N/A Rain Light Rain
3:50 PM 50.0 °F - 46.4 °F 87% 29.62 in 5.0 mi SSE 4.6 mph - N/A Rain Light Rain
4:20 PM 50.0 °F - 46.4 °F 87% 29.65 in 6.2 mi South 3.5 mph - N/A   Light Drizzle
4:50 PM 50.0 °F - 46.4 °F 87% 29.62 in 6.2 mi Calm Calm - N/A Rain Light Rain
5:50 PM 50.0 °F - 46.4 °F 87% 29.65 in 6.2 mi East 3.5 mph - N/A   Mostly Cloudy
6:20 PM 48.2 °F - 46.4 °F 93% 29.62 in 6.2 mi East 4.6 mph - N/A   Mostly Cloudy
6:50 PM 48.2 °F - 44.6 °F 87% 29.65 in 6.2 mi Variable 2.3 mph - N/A   Scattered Clouds
7:20 PM 46.4 °F - 44.6 °F 93% 29.65 in 6.2 mi Variable 1.2 mph - N/A   Partly Cloudy
7:50 PM 48.2 °F - 44.6 °F 87% 29.65 in - NW 3.5 mph - N/A   Clear
8:20 PM 48.2 °F - 42.8 °F 82% 29.65 in - North 3.5 mph - N/A   Clear
8:50 PM 46.4 °F 44.3 °F 44.6 °F 93% 29.68 in - North 4.6 mph - N/A   Clear
9:20 PM 46.4 °F 45.2 °F 44.6 °F 93% 29.68 in 4.3 mi NNW 3.5 mph - N/A   Unknown
9:50 PM 46.4 °F 45.2 °F 42.8 °F 87% 29.71 in 3.7 mi North 3.5 mph - N/A   Unknown
10:20 PM 44.6 °F - 41.0 °F 87% 29.71 in 3.1 mi Variable 2.3 mph - N/A   Mist
10:50 PM 44.6 °F - 41.0 °F 87% 29.71 in 3.1 mi North 2.3 mph - N/A   Mist
11:20 PM 44.6 °F 43.1 °F 41.0 °F 87% 29.74 in 3.1 mi North 3.5 mph - N/A   Mist
11:50 PM 41.0 °F 39.0 °F 39.2 °F 93% 29.74 in 5.0 mi NNE 3.5 mph - N/A   Unknown